Location: Focicchia
(42.2496°N, 9.2935°E)
Time: 18:15:45
(UTC+00:00)

Cosmos 2074 Rocket - Pass Details

Date: 07 June 2020
Orbit: 966 x 987 km, 82.9° (Epoch: 03 July)

Event Time Altitude Azimuth Distance (km) Brightness Sun altitude
Exits shadow 00:51:21 38° 178° (S) 1,451 4.4 -21.8°
Maximum altitude 00:53:56 82° 95° (E) 999 4.0 -21.6°
Drops below altitude 10° 01:00:14 10° 9° (N) 2,743 7.4 -21.1°
Sets 01:02:45 0° 9° (N) 3,693 8.4 -20.9°
